FW8566 Weather Reports


time (UTC)temp
C
wind
direction
speed
KPH
gust
KPH
rain 1hr
cm
rain 24hr
cm
rain mn
cm
humidity
%
barometer
mb
20260505012203 10 258 12.9 14.5 0.00 0.00 0.00 86 1013.0
20260505011658 10 228 12.9 12.9 0.00 0.00 0.00 86 1013.0
20260505011156 10 243 12.9 12.9 0.00 0.00 0.00 86 1013.0
20260505010651 10 257 14.5 14.5 0.00 0.00 0.00 86 1013.0
20260505010148 10 266 9.7 11.3 0.00 0.00 0.00 86 1013.0
20260505005644 11 234 14.5 14.5 0.00 0.00 0.00 85 1012.3
20260505005141 11 222 19.3 22.5 0.00 0.00 0.00 84 1012.3
20260505004638 11 204 19.3 20.9 0.00 0.00 0.00 84 1012.3
20260505004135 11 222 17.7 19.3 0.00 0.00 0.00 84 1012.3
20260505003632 11 174 17.7 19.3 0.00 0.00 0.00 83 1012.3
20260505003130 11 217 19.3 20.9 0.00 0.00 0.00 85 1012.3
20260505002625 11 245 14.5 17.7 0.00 0.00 0.00 84 1012.3
20260505002124 11 228 14.5 19.3 0.00 0.00 0.00 83 1012.3
20260505001621 11 201 17.7 19.3 0.00 0.00 0.00 83 1012.3
20260505001118 11 294 11.3 12.9 0.00 0.00 0.00 83 1012.0
20260505000615 11 246 9.7 9.7 0.00 0.00 0.00 83 1012.0
20260505000113 11 274 12.9 12.9 0.00 0.00 0.00 84 1012.0
20260504235609 11 287 8.0 8.0 0.00 0.00 0.00 84 1012.0
20260504235106 11 270 17.7 17.7 0.00 0.00 0.00 82 1012.0
20260504234603 11 264 9.7 11.3 0.00 0.00 0.00 81 1011.3
20260504234100 11 174 19.3 20.9 0.00 0.00 0.00 80 1011.3
20260504233555 11 228 24.1 29.0 0.00 0.00 0.00 79 1011.3
20260504233052 12 246 14.5 17.7 0.00 0.00 0.00 78 1011.3
20260504232549 12 186 22.5 27.4 0.00 0.00 0.00 77 1011.3
20260504232047 12 202 20.9 24.1 0.00 0.00 0.00 77 1011.3
20260504231543 12 204 17.7 17.7 0.00 0.00 0.00 77 1011.3
20260504231039 12 204 29.0 32.2 0.00 0.00 0.00 76 1011.3
20260504230536 12 240 22.5 25.7 0.00 0.00 0.00 76 1011.3
20260504230035 12 217 24.1 25.7 0.00 0.00 0.00 76 1011.3
20260504225532 12 218 17.7 17.7 0.00 0.00 0.00 75 1011.3
20260504225029 12 240 20.9 24.1 0.00 0.00 0.00 74 1011.3
20260504224525 12 222 27.4 30.6 0.00 0.00 0.00 73 1011.3
20260504224023 12 219 25.7 29.0 0.00 0.00 0.00 73 1011.0
20260504223519 12 201 19.3 20.9 0.00 0.00 0.00 73 1011.0
20260504223015 12 206 24.1 29.0 0.00 0.00 0.00 73 1011.0
20260504222512 12 204 20.9 24.1 0.00 0.00 0.00 72 1011.3
20260504222010 13 216 22.5 25.7 0.00 0.00 0.00 71 1011.3
20260504221507 13 217 24.1 25.7 0.00 0.00 0.00 69 1011.3
20260504221003 13 219 20.9 24.1 0.00 0.00 0.00 70 1011.0
20260504220500 13 192 19.3 20.9 0.00 0.00 0.00 69 1011.0
20260504215956 13 222 30.6 35.4 0.00 0.00 0.00 70 1011.3
20260504215453 13 216 30.6 33.8 0.00 0.00 0.00 69 1011.3
20260504214950 13 208 33.8 37.0 0.00 0.00 0.00 68 1011.3
20260504214446 13 207 24.1 25.7 0.00 0.00 0.00 68 1011.3
20260504213943 13 180 29.0 33.8 0.00 0.00 0.00 68 1011.3
20260504213439 13 207 32.2 33.8 0.00 0.00 0.00 68 1011.3
20260504212937 13 222 27.4 29.0 0.00 0.00 0.00 66 1011.0
20260504212432 13 234 22.5 24.1 0.00 0.00 0.00 66 1011.0
20260504211930 13 186 33.8 37.0 0.00 0.00 0.00 65 1011.0
20260504211426 13 227 30.6 35.4 0.00 0.00 0.00 65 1011.3
20260504210924 13 218 17.7 19.3 0.00 0.00 0.00 66 1011.3
20260504210421 13 233 19.3 20.9 0.00 0.00 0.00 65 1011.3
20260504205918 13 206 32.2 37.0 0.00 0.00 0.00 65 1011.3
20260504205415 13 204 19.3 20.9 0.00 0.00 0.00 65 1011.3
20260504204913 13 240 29.0 32.2 0.00 0.00 0.00 64 1011.3
20260504204412 13 201 30.6 32.2 0.00 0.00 0.00 65 1011.0
20260504203911 13 198 32.2 35.4 0.00 0.00 0.00 65 1011.0
20260504203408 13 205 35.4 37.0 0.00 0.00 0.00 65 1011.0
20260504202903 13 198 20.9 24.1 0.00 0.00 0.00 64 1011.0
20260504202400 14 198 20.9 20.9 0.00 0.00 0.00 61 1011.0
20260504201857 14 227 19.3 20.9 0.00 0.00 0.00 61 1011.0
20260504201354 14 222 33.8 40.2 0.00 0.00 0.00 62 1011.0
20260504200852 14 212 22.5 25.7 0.00 0.00 0.00 63 1011.0
20260504200348 13 192 24.1 25.7 0.00 0.00 0.00 64 1011.0
20260504195845 14 198 33.8 37.0 0.00 0.00 0.00 63 1011.0
20260504195340 15 186 29.0 32.2 0.00 0.00 0.00 60 1011.0
20260504194837 15 204 20.9 27.4 0.00 0.00 0.00 61 1011.0
20260504194333 15 204 30.6 37.0 0.00 0.00 0.00 60 1011.3
20260504193829 14 198 17.7 19.3 0.00 0.00 0.00 62 1011.3
20260504193327 13 228 30.6 33.8 0.00 0.00 0.00 65 1011.3
20260504192826 13 210 29.0 32.2 0.00 0.00 0.00 65 1011.3
20260504192323 13 216 30.6 33.8 0.00 0.00 0.00 65 1011.3
20260504191821 13 228 20.9 24.1 0.00 0.00 0.00 65 1011.3
20260504191319 13 198 27.4 29.0 0.00 0.00 0.00 66 1011.7
20260504190814 13 218 33.8 37.0 0.00 0.00 0.00 63 1011.7
20260504190310 14 204 33.8 37.0 0.00 0.00 0.00 60 1011.7
20260504185807 14 204 22.5 25.7 0.00 0.00 0.00 60 1011.7
20260504185304 15 210 35.4 41.8 0.00 0.00 0.00 58 1011.7
20260504184800 14 237 32.2 37.0 0.00 0.00 0.00 58 1011.7
20260504184256 14 212 30.6 33.8 0.00 0.00 0.00 59 1012.0
20260504183752 14 235 40.2 49.9 0.00 0.00 0.00 57 1012.0
20260504183249 14 201 33.8 37.0 0.00 0.00 0.00 61 1012.0
20260504182747 14 216 24.1 25.7 0.00 0.00 0.00 59 1012.0
20260504182244 14 180 25.7 27.4 0.00 0.00 0.00 59 1012.0
20260504181741 14 204 24.1 25.7 0.00 0.00 0.00 58 1012.0
20260504181238 15 195 25.7 29.0 0.00 0.00 0.00 57 1012.0
20260504180738 15 210 14.5 19.3 0.00 0.00 0.00 56 1012.0
20260504180236 15 204 22.5 25.7 0.00 0.00 0.00 55 1012.0
20260504175733 15 219 25.7 29.0 0.00 0.00 0.00 55 1012.0
20260504175230 15 220 19.3 20.9 0.00 0.00 0.00 55 1012.0
20260504174728 14 192 17.7 19.3 0.00 0.00 0.00 56 1012.0
20260504174225 13 198 12.9 12.9 0.00 0.00 0.00 59 1012.3
20260504173721 13 204 20.9 24.1 0.00 0.00 0.00 59 1012.3
20260504173219 13 239 11.3 12.9 0.00 0.00 0.00 61 1012.3
20260504172715 15 222 12.9 14.5 0.00 0.00 0.00 53 1012.3
20260504172212 13 228 12.9 14.5 0.00 0.00 0.00 54 1012.3
20260504171708 13 228 17.7 20.9 0.00 0.00 0.00 58 1012.3
20260504171206 12 240 20.9 25.7 0.00 0.00 0.00 62 1012.3
20260504170702 13 204 20.9 24.1 0.00 0.00 0.00 61 1012.3
20260504170200 12 200 20.9 22.5 0.00 0.00 0.00 64 1012.3
20260504160118 12 207 24.1 25.7 0.00 0.00 0.00 59 1012.7
20260504151045 13 216 8.0 9.7 0.00 0.00 0.00 53 1013.4
20260504150542 12 255 20.9 24.1 0.00 0.00 0.00 57 1013.4
20260504141008 13 262 30.6 35.4 0.00 0.00 0.00 48 1013.7
20260504140505 13 257 27.4 30.6 0.00 0.00 0.00 48 1013.7
20260504130429 11 245 8.0 8.0 0.00 0.00 0.00 64 1014.0
20260504110317 9 222 17.7 19.3 0.00 0.00 0.00 80 1014.0
20260504100234 8 252 20.9 24.1 0.00 0.00 0.00 81 1013.4
20260504081628 7 256 8.0 9.7 0.00 0.00 0.00 80 1013.0
20260504081123 7 294 12.9 12.9 0.00 0.00 0.00 80 1013.0
20260504080620 7 228 6.4 6.4 0.00 0.00 0.00 81 1013.0
20260504080117 7 228 4.8 4.8 0.00 0.00 0.00 82 1013.0
20260504050433 7 270 3.2 3.2 0.00 0.00 0.00 80 1012.7
20260504045930 7 270 3.2 3.2 0.00 0.00 0.00 80 1012.7
20260504045426 7 270 3.2 3.2 0.00 0.00 0.00 81 1012.7
20260504044922 7 270 6.4 6.4 0.00 0.00 0.00 83 1012.7
20260504044419 7 270 3.2 3.2 0.00 0.00 0.00 83 1012.7
20260504043917 7 271 6.4 6.4 0.00 0.00 0.00 82 1012.7
20260504043414 7 266 6.4 6.4 0.00 0.00 0.00 81 1012.7
20260504042911 7 266 3.2 3.2 0.00 0.00 0.00 81 1012.7
20260504042408 7 266 3.2 3.2 0.00 0.00 0.00 80 1012.7
20260504041904 8 266 3.2 3.2 0.00 0.00 0.00 80 1012.7
20260504041400 8 266 3.2 3.2 0.00 0.00 0.00 80 1012.3
20260504040856 8 266 3.2 3.2 0.00 0.00 0.00 80 1012.3
20260504040354 8 266 3.2 3.2 0.00 0.00 0.00 79 1012.3
20260504035850 8 270 4.8 4.8 0.00 0.00 0.00 79 1012.3
20260504035348 8 268 4.8 4.8 0.00 0.00 0.00 80 1012.3
20260504034844 8 268 4.8 4.8 0.00 0.00 0.00 80 1012.3
20260504034342 8 268 6.4 6.4 0.00 0.00 0.00 81 1012.7
20260504033838 7 266 6.4 8.0 0.00 0.00 0.00 82 1012.7
20260504033337 7 266 6.4 6.4 0.00 0.00 0.00 82 1012.7
20260504032833 8 266 3.2 3.2 0.00 0.00 0.00 81 1012.3
20260504032330 8 273 6.4 6.4 0.00 0.00 0.00 79 1012.3
20260504031827 8 276 6.4 8.0 0.00 0.00 0.00 78 1012.3
20260504031324 8 257 6.4 8.0 0.00 0.00 0.00 76 1012.3
20260504030820 8 252 4.8 4.8 0.00 0.00 0.00 75 1012.3
20260504030318 8 246 9.7 11.3 0.00 0.00 0.00 74 1012.3
20260504025814 8 270 8.0 8.0 0.00 0.00 0.00 75 1012.0
20260504025311 8 270 9.7 9.7 0.00 0.00 0.00 76 1012.0
20260504024808 8 270 9.7 11.3 0.00 0.00 0.00 76 1012.0
20260504024304 8 264 6.4 6.4 0.00 0.00 0.00 76 1012.3
20260504023801 8 264 6.4 6.4 0.00 0.00 0.00 75 1012.3
20260504023257 8 263 6.4 6.4 0.00 0.00 0.00 74 1012.3
20260504022753 8 263 3.2 3.2 0.00 0.00 0.00 73 1012.0
20260504022250 8 258 6.4 8.0 0.00 0.00 0.00 72 1012.0
20260504021747 8 252 4.8 4.8 0.00 0.00 0.00 70 1012.0
20260504021244 8 252 6.4 6.4 0.00 0.00 0.00 67 1012.0
20260504020741 8 258 9.7 9.7 0.00 0.00 0.00 67 1012.0
20260504020237 8 213 9.7 11.3 0.00 0.00 0.00 66 1012.0
20260504015733 8 300 8.0 8.0 0.00 0.00 0.00 63 1012.0
20260504015230 8 300 6.4 6.4 0.00 0.00 0.00 59 1012.0
20260504014726 8 300 6.4 6.4 0.00 0.00 0.00 55 1012.0
20260504014223 8 300 3.2 3.2 0.00 0.00 0.00 50 1011.7
20260504013720 8 300 3.2 3.2 0.00 0.00 0.00 48 1011.7
20260504013218 8 300 3.2 3.2 0.00 0.00 0.00 48 1011.7
20260504012714 9 300 0.0 0.0 0.00 0.00 0.00 46 1011.7